Knows.nl

Technical website intelligence, screenshots, and crawl history.

Full Index

Showing up to 100 newest rows before ID 5713854.

IDDomainStatusLast visitURL
5713843 coastalcameranetwork.com 200 2026-08-30 13:05:08 https://coastalcameranetwork.com/
5713839 www.dallasclayton.com 200 2026-08-30 13:04:36 http://www.dallasclayton.com/
5713838 www.dallasclayton.com 200 2026-08-30 13:04:28 https://www.dallasclayton.com/
5713836 blog.dallasclayton.com 200 2026-08-30 13:04:28 https://blog.dallasclayton.com/
5713828 nexa-360.fr 200 2026-08-30 13:04:24 https://nexa-360.fr/
5713826 keyinspire-conciergerie.com 200 2026-08-30 13:04:24 https://keyinspire-conciergerie.com/
5713825 domea-callian.fr 200 2026-08-30 13:04:22 https://domea-callian.fr/
5713824 www.prostoprelest.com.ua 200 2026-08-30 13:04:21 https://www.prostoprelest.com.ua/
5713817 www2.jmeeting.com 200 2026-08-30 13:04:19 http://www2.jmeeting.com/
5713816 www.jmeeting.com 200 2026-08-30 13:04:16 https://www.jmeeting.com/
5713811 dogsandcats.bg 200 2026-08-30 13:04:07 https://dogsandcats.bg/
5713810 carmarket.bg 200 2026-08-30 13:04:06 https://carmarket.bg/
5713808 www.gong.bg 200 2026-08-30 13:04:05 https://www.gong.bg/
5713798 mosak.com 200 2026-08-30 13:03:47 http://mosak.com/
5713797 beibayproductions.com 200 2026-08-30 13:03:46 https://beibayproductions.com/
5713795 www.onstory.tv 200 2026-08-30 13:03:42 http://www.onstory.tv/
5713793 www.invitationtenants.com 200 2026-08-30 13:03:14 https://www.invitationtenants.com/
5713791 geomap.ffiec.gov 403 2026-08-30 13:03:12 https://geomap.ffiec.gov/
5713790 nacatestimonials.com 200 2026-08-30 13:02:58 https://nacatestimonials.com/
5713782 blogs.alianzo.com 200 2026-08-30 13:02:33 https://blogs.alianzo.com/
5713781 sietecoyote.com 404 2026-08-30 13:02:33 http://sietecoyote.com/
5713779 faq-tastic.com 200 2026-08-30 13:02:33 http://faq-tastic.com/
5713778 www.michelfortin.com 200 2026-08-30 13:02:31 http://www.michelfortin.com/
5713777 www.cuba-cursos.org 200 2026-08-30 13:02:31 https://www.cuba-cursos.org/
5713767 www.plavarencadca.sk 200 2026-08-30 13:02:11 https://www.plavarencadca.sk/
5713762 feldexperiences.com 200 2026-08-30 13:02:06 https://feldexperiences.com/
5713758 www.ithacadri.com 200 2026-08-30 13:01:05 https://www.ithacadri.com/
5713754 wellness.withinspace.com 200 2026-08-30 13:00:14 https://wellness.withinspace.com/
5713753 www.withinspace.com 200 2026-08-30 13:00:13 https://www.withinspace.com/
5713748 www.totalhomedirectory.com 200 2026-08-30 13:00:01 https://www.totalhomedirectory.com/
5713743 www.100layercake.com 200 2026-08-30 12:59:25 http://www.100layercake.com/
5713742 greenweddingshoes.com 200 2026-08-30 12:59:24 http://greenweddingshoes.com/
5713740 www.learntefillah.com 200 2026-08-30 12:59:14 https://www.learntefillah.com/
5713739 ask.itorah.com 200 2026-08-30 12:59:12 https://ask.itorah.com/
5713722 www.depressedalien.com 200 2026-08-30 12:58:17 https://www.depressedalien.com/
5713721 www.connorullmann.com 200 2026-08-30 12:58:15 https://www.connorullmann.com/
5713718 www.rapidhomeremedies.com 200 2026-08-30 12:58:00 https://www.rapidhomeremedies.com/
5713716 putlocker.tw 200 2026-08-30 12:56:41 http://putlocker.tw/
5713710 www.ljudochbild.se 200 2026-08-30 12:55:27 https://www.ljudochbild.se/
5713689 cytonnreport.com 200 2026-08-30 12:53:09 https://cytonnreport.com/
5713688 www.cytonndiaspora.com 200 2026-08-30 12:53:07 https://www.cytonndiaspora.com/
5713686 serafinances.com 200 2026-08-30 12:51:30 https://serafinances.com/
5713685 comeandtakeitamerica.com 200 2026-08-30 12:51:29 https://comeandtakeitamerica.com/
5713684 panenleci.com 200 2026-08-30 12:51:27 https://panenleci.com/
5713683 lebouledoguefrancais.com 200 2026-08-30 12:51:25 https://lebouledoguefrancais.com/
5713682 consultoriodentalhome.co 200 2026-08-30 12:51:23 https://consultoriodentalhome.co/
5713679 www.tunevibe.com 200 2026-08-30 12:50:51 https://www.tunevibe.com/
5713676 www.aduhclothing.com 404 2026-08-30 12:50:34 https://www.aduhclothing.com/
5713675 www.dj-league.net 200 2026-08-30 12:50:34 https://www.dj-league.net/
5713665 www.prosperitycandle.com 200 2026-08-30 12:50:06 https://www.prosperitycandle.com/
5713661 www.bualuang.co.th 200 2026-08-30 12:50:05 https://www.bualuang.co.th/
5713660 ifunds.bangkokbank.com 200 2026-08-30 12:50:02 https://ifunds.bangkokbank.com/
5713655 letenky.invia.sk 200 2026-08-30 12:49:31 http://letenky.invia.sk/
5713639 aaaspanking.com 200 2026-08-30 12:49:00 http://aaaspanking.com/
5713636 naughtybottom.commovies 404 2026-08-30 12:48:57 https://naughtybottom.commovies/
5713627 www.usjjf.org 200 2026-08-30 12:48:34 https://www.usjjf.org/
5713626 www.albertajja.com 200 2026-08-30 12:48:32 https://www.albertajja.com/
5713621 www.chinjuen.co.jp 200 2026-08-30 12:47:50 http://www.chinjuen.co.jp/
5713616 gunespastanesi.com 200 2026-08-30 12:47:00 https://gunespastanesi.com/
5713613 www.netasertifikasyon.com 200 2026-08-30 12:46:46 https://www.netasertifikasyon.com/
5713612 luberta.com.tr 200 2026-08-30 12:46:45 https://luberta.com.tr/
5713611 www.democracyendowment.eu 200 2026-08-30 12:46:44 https://www.democracyendowment.eu/
5713606 scninc.wpengine.com 200 2026-08-30 12:45:23 https://scninc.wpengine.com/
5713591 www.dersimiz.com 200 2026-08-30 12:43:47 http://www.dersimiz.com/
5713586 api.menutech.com 401 2026-08-30 12:43:42 https://api.menutech.com/
5713585 ovv.gya.temporary.site 200 2026-08-30 12:43:41 https://ovv.gya.temporary.site/
5713584 havenacademy.integrity6.com 200 2026-08-30 12:43:40 https://havenacademy.integrity6.com/
5713579 www.kimp.io 200 2026-08-30 12:43:30 https://www.kimp.io/
5713577 youtube.trends24.in 200 2026-08-30 12:43:25 https://youtube.trends24.in/
5713575 archive.trends24.in 200 2026-08-30 12:43:25 https://archive.trends24.in/
5713559 angelcareuk.zendesk.com 200 2026-08-30 12:43:13 https://angelcareuk.zendesk.com/
5713554 e-handel.invid.se 200 2026-08-30 12:43:11 https://e-handel.invid.se/
5713548 boston-store.ru 200 2026-08-30 12:43:09 https://boston-store.ru/
5713546 rajbhavan.cg.gov.in 404 2026-08-30 12:42:49 https://rajbhavan.cg.gov.in/
5713544 svyks.in 200 2026-08-30 12:42:34 https://svyks.in/
5713543 csvtujournal.in 404 2026-08-30 12:42:31 https://csvtujournal.in/
5713542 csvtu.digivarsity.online 200 2026-08-30 12:42:31 https://csvtu.digivarsity.online/
5713535 www.binarybanq.com 404 2026-08-30 12:40:50 http://www.binarybanq.com/
5713534 entretenimientogamer.blogspot.com 200 2026-08-30 12:40:49 http://entretenimientogamer.blogspot.com/
5713533 gratispeliculasespl.blogspot.com 200 2026-08-30 12:40:49 https://gratispeliculasespl.blogspot.com/
5713530 anfsp.footeo.com 200 2026-08-30 12:40:21 https://anfsp.footeo.com/
5713529 ol-sud-revermont01.footeo.com 200 2026-08-30 12:40:20 https://ol-sud-revermont01.footeo.com/
5713528 as-taillan-football.footeo.com 200 2026-08-30 12:40:20 https://as-taillan-football.footeo.com/
5713527 athletic-cuvry-augny.footeo.com 200 2026-08-30 12:40:20 https://athletic-cuvry-augny.footeo.com/
5713526 jslfoot.footeo.com 200 2026-08-30 12:40:19 https://jslfoot.footeo.com/
5713524 7.tsalenchuk.com 200 2026-08-30 12:40:18 https://7.tsalenchuk.com/
5713523 tsalenchuk.com 200 2026-08-30 12:40:17 http://tsalenchuk.com/
5713518 lojo2.com 502 2026-08-30 12:40:08 https://lojo2.com/
5713517 lojo2com.blogspot.com 200 2026-08-30 12:40:06 https://lojo2com.blogspot.com/
5713514 cslewis.simpletix.com 200 2026-08-30 12:39:14 https://cslewis.simpletix.com/
5713513 cslewis.app.neoncrm.com 200 2026-08-30 12:39:12 https://cslewis.app.neoncrm.com/
5713512 greenpasturesstudycenter.org 200 2026-08-30 12:39:09 https://greenpasturesstudycenter.org/
5713511 www.cslewiscollege.org 200 2026-08-30 12:39:08 https://www.cslewiscollege.org/
5713509 24hdocumentsprodst.blob.core.windows.net 400 2026-08-30 12:37:54 https://24hdocumentsprodst.blob.core.windows.net/
5713508 b2c-innovation-spa.truespeak.eu 200 2026-08-30 12:37:53 https://b2c-innovation-spa.truespeak.eu/
5713506 chat.24h.fan 400 2026-08-30 12:37:53 https://chat.24h.fan/
5713505 help.moto.app 200 2026-08-30 12:37:52 https://help.moto.app/
5713504 partner.moto.app 200 2026-08-30 12:37:51 https://partner.moto.app/
5713496 serveday.com 200 2026-08-30 12:37:22 https://serveday.com/
5713489 files.manuscdn.com 200 2026-08-30 12:36:22 https://files.manuscdn.com/